Wind_Speed
5 5 5 5 5 6 6 6 6 6 6 6 7 7 7 7 8 9 9 10 10 11 11 11 11 11 11 11 11 12 13 13 13 13 13 13 13 14 15 16 16 16 15
4 4 4 4 4 5 5 5 5 5 5 6 6 6 7 7 7 8 8 8 8 9 10 10 10 10 10 10 11 11 12 12 12 11 11 11 11 12 13 15 16 16 15
4 4 4 4 4 4 4 4 4 4 5 5 5 5 6 6 6 7 7 7 8 8 9 9 9 10 10 10 11 11 11 11 11 11 11 11 11 11 12 14 14 15 15
4 4 4 4 4 4 4 4 3 3 4 4 4 5 5 6 6 7 7 8 8 8 9 9 9 10 10 10 11 11 11 12 11 11 11 11 11 11 12 12 13 14 14
4 4 3 3 3 3 3 3 3 4 3 3 4 4 5 5 6 7 7 7 8 8 9 9 9 9 9 9 9 10 10 11 10 10 11 11 11 11 12 12 12 13 14
4 4 3 3 3 2 2 3 3 3 3 3 3 3 4 4 4 5 6 6 7 7 8 8 9 10 10 9 9 9 9 9 9 10 10 10 10 11 11 12 12 13 13
4 4 3 3 3 2 3 2 3 3 3 3 3 3 3 3 3 4 4 4 6 6 6 7 8 9 9 9 9 9 9 10 10 10 9 10 11 11 11 11 12 12 13
4 3 3 3 2 2 2 2 3 3 3 3 3 3 3 3 3 4 4 4 5 6 6 7 8 9 9 8 8 8 9 9 9 9 9 9 10 11 11 11 11 12 12
4 3 3 3 3 3 2 2 3 3 3 3 3 3 4 4 4 4 5 5 5 7 7 7 7 8 8 8 8 7 8 8 8 8 8 9 9 10 10 11 12 13 14
4 3 3 3 4 3 3 3 4 3 3 4 4 4 4 5 5 5 6 6 5 6 6 7 7 7 7 8 8 7 7 7 7 8 9 9 10 10 10 11 11 13 13
4 3 3 3 4 4 4 4 4 4 4 4 5 5 5 5 6 6 6 6 6 6 7 7 7 8 8 8 7 7 7 7 7 8 8 9 9 10 10 11 11 12 12
4 3 3 4 4 3 4 4 4 4 4 4 5 5 6 5 6 6 7 7 7 7 7 8 8 8 7 7 7 7 7 7 8 8 9 9 10 11 10 10 10 11 12
5 4 4 4 4 4 4 3 3 4 4 4 5 5 5 5 5 6 6 7 7 7 8 8 8 7 7 7 7 8 8 8 9 10 11 11 12 12 12 12 12 12 13
5 5 5 5 5 4 4 4 4 4 4 4 4 4 5 5 5 5 5 6 6 6 6 7 7 6 6 7 7 8 8 9 9 10 11 12 12 12 12 12 12 12 13
5 5 5 6 5 5 5 5 5 5 5 5 5 5 5 5 5 4 5 5 5 5 5 5 6 6 6 6 7 7 8 9 9 10 11 12 12 12 12 12 13 13 13
6 6 6 6 6 6 5 5 6 6 6 6 6 6 5 5 4 4 5 5 5 5 5 6 6 6 6 7 8 8 9 9 10 11 11 12 12 13 13 13 14 14 15
7 7 7 6 6 6 6 6 6 6 6 6 6 6 5 5 5 5 5 6 6 6 6 6 7 7 7 8 8 9 10 10 11 12 12 12 13 13 13 14 15 15 16
8 8 7 7 7 7 7 7 7 7 6 6 6 6 5 5 6 6 6 6 6 7 7 8 8 8 9 10 10 11 11 11 12 13 13 13 14 14 15 15 16 16 17
9 8 8 9 8 8 8 8 7 7 6 6 6 6 6 6 6 6 7 7 8 8 8 9 9 9 10 10 11 11 12 13 14 14 14 15 16 16 16 17 17 18 18
10 10 10 10 9 9 9 9 9 8 7 7 7 7 7 7 7 7 8 8 9 9 10 10 10 10 10 11 11 12 13 14 15 15 16 16 17 18 18 18 19 19 20
12 12 11 11 11 11 11 10 10 10 9 9 9 9 8 8 9 9 9 9 9 10 10 10 11 11 12 12 13 13 14 15 16 16 17 17 18 19 19 20 21 21 22
14 13 13 13 12 12 12 12 11 11 11 10 10 10 10 10 10 10 10 10 10 10 11 12 12 13 14 14 15 16 16 17 17 18 19 19 20 20 21 22 22 23 24
15 15 15 14 14 13 13 13 12 12 11 11 11 11 11 11 12 12 12 12 12 13 13 14 14 15 15 16 17 18 18 19 20 20 21 21 22 22 23 23 24 24 25
17 16 16 16 15 15 14 14 14 13 13 13 13 13 13 13 13 13 13 14 14 15 15 16 16 17 18 19 19 20 21 21 22 22 23 23 23 24 24 25 25 26 27
19 18 18 17 17 17 16 16 15 15 14 14 15 15 15 15 15 15 16 16 16 17 17 18 19 19 20 20 21 21 22 23 23 23 23 24 25 25 26 27 27 28 29
20 20 19 18 18 18 17 17 17 16 16 16 16 16 15 15 16 16 17 18 18 19 19 20 20 21 21 21 22 23 23 24 24 24 24 25 26 27 27 28 29 29 30
Wind_Direction
271 270 273 282 279 273 264 256 252 247 240 242 246 246 249 252 256 253 250 247 247 246 247 249 251 254 256 258 260 260 263 263 266 264 266 266 259 253 252 252 255 260 264
276 276 273 279 277 271 265 257 256 253 244 245 246 246 248 255 260 252 247 244 244 246 248 251 254 256 258 259 261 262 264 265 264 267 268 268 261 254 253 254 256 259 262
280 278 271 275 277 273 264 256 246 252 252 246 246 249 250 253 253 248 244 244 248 249 250 252 256 258 259 261 261 261 264 265 265 267 267 267 265 260 259 259 259 263 265
282 275 273 279 274 263 255 253 246 256 254 245 249 252 254 255 249 249 250 250 252 253 251 253 259 259 259 260 261 260 262 264 265 266 265 264 264 263 263 265 265 266 267
283 272 273 277 268 254 248 247 251 256 256 250 254 255 254 255 251 256 254 251 254 253 251 254 259 259 258 260 260 262 263 263 263 262 264 265 265 265 265 267 269 269 268
286 272 269 272 260 249 249 253 259 262 258 254 262 267 263 252 259 258 253 252 255 254 254 258 262 260 259 262 262 263 260 262 266 267 266 266 266 266 267 267 268 268 269
285 280 269 262 257 255 264 268 259 261 249 248 254 260 260 247 258 267 262 260 257 254 256 260 263 261 260 261 261 262 262 264 265 268 269 269 268 268 268 269 269 270 269
288 281 273 256 247 258 263 253 260 256 252 239 235 245 259 260 262 260 263 267 265 261 260 268 267 267 266 260 259 262 267 269 267 265 271 273 273 271 269 270 270 270 269
281 271 261 255 251 258 256 256 254 246 245 238 242 252 258 255 260 264 269 276 273 266 267 275 278 272 268 261 258 262 269 272 269 272 276 276 274 272 271 271 271 271 271
269 263 259 259 257 248 253 257 254 253 256 251 254 259 262 264 266 267 267 272 277 274 272 276 283 278 273 269 265 263 268 275 274 276 282 282 281 283 279 278 277 275 272
263 264 262 262 254 241 244 248 257 263 261 255 257 262 265 268 272 275 272 271 274 277 276 277 280 278 271 261 261 266 269 277 281 281 284 285 287 290 284 282 279 276 275
258 258 258 262 260 250 240 242 253 259 262 259 257 258 261 268 276 280 279 278 277 280 281 282 283 283 269 267 267 269 273 282 281 282 287 292 292 290 290 283 281 279 281
256 254 255 257 259 253 247 246 247 251 255 260 259 256 261 268 275 281 285 285 284 284 285 286 285 278 275 278 279 279 279 284 286 288 287 289 292 291 286 284 283 282 283
253 249 249 254 255 252 251 250 253 252 254 257 262 263 263 274 279 281 285 287 286 286 290 288 288 287 284 283 287 284 285 288 289 291 292 292 291 293 290 286 283 283 283
250 249 250 251 257 254 252 251 254 257 260 261 263 267 270 274 277 281 283 283 286 290 293 294 293 289 293 296 297 291 291 292 293 295 296 294 293 294 291 289 287 287 286
254 253 254 256 260 254 252 253 258 260 264 265 267 266 264 266 273 277 277 279 285 290 292 295 294 296 299 301 299 297 295 294 295 297 298 297 298 297 293 291 291 292 294
259 260 259 258 257 256 253 254 257 260 264 265 267 265 259 264 270 273 274 274 279 286 290 294 295 293 293 298 302 301 298 299 301 301 301 302 303 302 298 295 293 294 295
259 261 258 258 258 259 261 260 261 260 261 265 267 264 266 274 277 278 279 276 280 287 290 291 293 292 292 295 298 299 299 298 299 299 300 301 301 301 300 299 298 296 297
258 258 259 262 262 260 264 266 263 262 262 261 264 266 270 276 280 279 278 280 285 289 291 291 291 292 294 295 296 298 298 297 296 297 298 299 299 299 299 298 298 298 298
256 258 260 262 264 262 262 264 263 262 265 262 263 265 270 275 277 278 279 282 285 288 291 292 292 294 294 296 298 298 299 299 296 296 298 299 299 300 300 299 299 298 297
255 257 260 262 264 263 261 261 259 259 264 265 266 268 271 278 279 280 279 280 283 286 288 291 292 292 293 297 298 298 299 300 299 298 300 300 299 299 300 300 300 299 298
256 257 259 263 264 264 259 259 259 257 260 264 267 270 270 275 279 280 279 278 281 285 287 289 291 292 293 295 297 298 298 298 299 299 300 300 299 299 300 300 300 299 298
259 258 258 260 262 265 263 261 258 256 259 263 265 269 271 273 276 279 279 280 283 284 285 286 288 291 292 293 293 294 295 296 297 298 299 301 302 301 300 300 301 299 298
259 260 260 259 260 260 261 261 259 258 261 263 267 269 272 277 279 280 282 282 282 282 283 285 288 291 291 291 292 292 293 294 295 296 297 298 300 301 302 302 301 301 301
259 260 258 258 259 258 257 256 256 257 262 265 268 270 273 278 280 280 281 282 283 283 284 285 287 290 291 291 291 293 293 294 295 297 298 299 300 300 300 300 301 302 302
259 259 259 259 258 257 257 256 257 258 261 264 267 270 273 276 278 280 282 282 284 284 285 285 287 288 290 291 292 293 294 296 296 297 298 299 299 300 300 301 302 303 302
Height
5865 5864 5864 5863 5862 5862 5862 5861 5861 5861 5862 5862 5862 5862 5862 5862 5863 5863 5863 5863 5864 5864 5864 5865 5865 5865 5866 5866 5866 5866 5866 5865 5865 5864 5863 5862 5860 5860 5862 5863 5863 5864 5864
5864 5863 5863 5862 5862 5861 5861 5861 5861 5861 5861 5861 5861 5861 5861 5861 5861 5861 5861 5861 5862 5862 5862 5863 5863 5863 5863 5863 5864 5863 5863 5863 5862 5862 5861 5860 5859 5859 5859 5860 5860 5861 5861
5863 5862 5862 5862 5861 5860 5860 5860 5860 5860 5860 5860 5860 5860 5859 5859 5859 5859 5859 5860 5860 5860 5860 5861 5861 5861 5861 5861 5861 5861 5861 5860 5860 5859 5859 5858 5858 5858 5857 5857 5857 5858 5858
5862 5861 5861 5861 5860 5860 5859 5860 5859 5859 5859 5859 5859 5858 5858 5858 5858 5858 5858 5858 5858 5858 5858 5859 5859 5858 5858 5858 5858 5858 5858 5857 5857 5857 5856 5856 5855 5855 5855 5855 5855 5855 5855
5861 5861 5860 5860 5859 5859 5859 5859 5859 5858 5858 5858 5858 5858 5857 5857 5857 5857 5857 5857 5857 5856 5857 5857 5857 5856 5856 5856 5856 5856 5855 5855 5855 5854 5854 5853 5853 5853 5852 5852 5852 5852 5852
5860 5859 5859 5859 5858 5858 5858 5858 5858 5858 5857 5857 5857 5857 5857 5856 5856 5856 5856 5855 5855 5855 5855 5855 5855 5854 5854 5854 5854 5854 5853 5853 5852 5852 5851 5851 5850 5850 5850 5849 5849 5849 5848
5859 5859 5858 5858 5858 5857 5857 5857 5857 5857 5857 5857 5857 5857 5856 5856 5856 5855 5855 5854 5854 5854 5853 5853 5853 5852 5852 5852 5852 5851 5851 5851 5850 5849 5849 5848 5848 5847 5847 5846 5846 5846 5845
5858 5858 5857 5857 5857 5857 5857 5856 5856 5856 5856 5856 5856 5856 5856 5856 5855 5855 5854 5854 5853 5853 5852 5852 5851 5851 5850 5850 5850 5849 5849 5848 5848 5847 5847 5846 5845 5844 5844 5843 5843 5842 5842
5857 5857 5857 5856 5856 5856 5856 5855 5855 5855 5855 5855 5855 5856 5855 5855 5854 5854 5853 5853 5852 5852 5851 5851 5850 5849 5849 5848 5848 5848 5847 5847 5846 5845 5844 5843 5842 5842 5841 5840 5839 5839 5839
5856 5856 5856 5856 5855 5855 5855 5855 5855 5854 5855 5854 5854 5854 5854 5854 5854 5853 5853 5852 5851 5851 5850 5849 5849 5848 5847 5847 5846 5846 5845 5844 5844 5843 5842 5841 5840 5839 5837 5837 5836 5836 5836
5855 5855 5855 5855 5854 5854 5854 5854 5854 5854 5854 5854 5853 5853 5853 5853 5853 5852 5852 5851 5850 5849 5849 5848 5847 5846 5845 5845 5844 5844 5843 5843 5842 5841 5839 5839 5838 5836 5834 5834 5833 5833 5833
5854 5854 5854 5854 5854 5854 5854 5853 5853 5853 5853 5853 5852 5852 5852 5852 5851 5851 5850 5849 5849 5848 5847 5846 5846 5845 5844 5843 5843 5842 5842 5841 5840 5839 5837 5836 5835 5834 5832 5831 5830 5830 5830
5853 5853 5853 5853 5853 5853 5853 5853 5853 5852 5852 5851 5851 5851 5851 5850 5850 5849 5848 5848 5847 5846 5845 5844 5844 5843 5842 5842 5841 5840 5840 5839 5838 5837 5835 5834 5833 5832 5831 5829 5828 5828 5827
5852 5852 5853 5853 5852 5852 5852 5852 5852 5851 5851 5851 5850 5850 5849 5849 5848 5848 5847 5846 5845 5845 5844 5843 5842 5841 5841 5840 5839 5838 5838 5837 5836 5835 5833 5832 5831 5830 5829 5828 5826 5825 5824
5851 5851 5851 5852 5851 5851 5851 5851 5851 5850 5850 5850 5849 5849 5848 5848 5847 5846 5846 5845 5845 5844 5843 5842 5841 5840 5839 5838 5837 5837 5836 5835 5834 5832 5831 5829 5828 5827 5826 5825 5824 5823 5821
5850 5850 5850 5850 5850 5850 5850 5850 5849 5849 5849 5848 5848 5847 5847 5846 5846 5845 5845 5844 5843 5843 5842 5841 5840 5839 5838 5837 5836 5835 5834 5833 5832 5830 5829 5827 5825 5824 5823 5822 5821 5819 5818
5848 5848 5848 5848 5848 5848 5848 5848 5848 5847 5847 5847 5846 5846 5845 5845 5844 5844 5843 5843 5842 5841 5840 5839 5838 5837 5836 5835 5834 5833 5832 5830 5829 5828 5826 5824 5823 5821 5820 5818 5817 5816 5814
5846 5846 5846 5847 5847 5847 5846 5846 5846 5846 5845 5845 5845 5844 5844 5843 5843 5842 5842 5841 5841 5840 5839 5838 5837 5835 5834 5833 5832 5831 5829 5828 5826 5825 5823 5822 5820 5818 5817 5815 5813 5812 5810
5844 5844 5844 5845 5845 5844 5844 5844 5844 5844 5843 5843 5843 5843 5842 5842 5841 5841 5840 5839 5839 5838 5837 5836 5835 5833 5832 5831 5829 5828 5826 5825 5823 5821 5820 5818 5817 5815 5813 5811 5809 5808 5806
5842 5842 5842 5842 5842 5842 5842 5842 5842 5842 5841 5841 5841 5841 5840 5840 5839 5839 5838 5837 5836 5835 5834 5833 5832 5831 5829 5828 5826 5825 5823 5821 5820 5818 5816 5814 5813 5811 5809 5807 5805 5803 5801
5839 5839 5839 5839 5839 5839 5839 5839 5839 5839 5839 5839 5839 5839 5838 5838 5837 5836 5835 5835 5834 5833 5832 5830 5829 5828 5827 5825 5824 5822 5820 5818 5816 5814 5812 5810 5809 5807 5805 5803 5800 5798 5796
5835 5835 5836 5836 5836 5836 5836 5836 5836 5836 5836 5836 5836 5836 5835 5835 5834 5833 5833 5832 5831 5830 5829 5828 5826 5825 5823 5822 5820 5818 5816 5814 5813 5811 5808 5806 5804 5802 5800 5798 5795 5793 5790
5831 5832 5832 5832 5832 5833 5833 5833 5833 5833 5833 5833 5833 5832 5832 5832 5831 5830 5829 5828 5827 5826 5825 5824 5823 5821 5819 5818 5816 5814 5812 5810 5808 5806 5804 5801 5799 5797 5794 5792 5789 5787 5784
5827 5827 5827 5828 5828 5828 5829 5829 5829 5829 5829 5829 5829 5829 5829 5828 5827 5827 5826 5825 5824 5822 5821 5820 5819 5817 5815 5813 5811 5809 5807 5805 5803 5801 5798 5796 5793 5791 5788 5786 5783 5780 5777
5821 5822 5822 5822 5823 5823 5824 5824 5825 5825 5825 5825 5825 5825 5825 5824 5823 5822 5822 5820 5819 5818 5816 5815 5813 5812 5810 5808 5806 5804 5801 5799 5797 5795 5792 5790 5787 5784 5782 5779 5776 5773 5769
5815 5816 5816 5817 5817 5818 5819 5819 5820 5820 5820 5820 5821 5820 5820 5819 5819 5818 5817 5816 5815 5813 5812 5810 5808 5806 5804 5802 5800 5798 5795 5793 5791 5789 5786 5783 5781 5778 5775 5771 5768 5765 5761